Location: Unspecified
(0.0000°N, 0.0000°E)
Time: 18:46:54
(UTC+00:00)

A-11 Canister half - Pass Details

Date: 22 November 2019
Orbit: 1526 x 1683 km, 47.3° (Epoch: 05 December)

Event Time Altitude Azimuth Distance (km) Brightness Sun altitude
Rises 09:12:11 0° 242° (WSW) 4,918 11.4 47.3°
Reaches altitude 10° 09:15:48 10° 252° (WSW) 3,937 11.0 48.1°
Maximum altitude 09:24:27 32° 311° (NW) 2,582 10.2 50.0°
Drops below altitude 10° 09:33:06 10° 11° (N) 3,912 11.1 51.8°
Sets 09:36:45 0° 21° (NNE) 4,882 11.5 52.5°
